Hourly Data Report for October 20, 2015

All times are specified in Local Standard Time (LST). Add 1 hour to adjust for Daylight Saving Time where and when it is observed.

IQALUIT CLIMATE
NUNAVUT

63°44'50.000" N
68°32'40.000" W
33.50 m
2402592
71321
XFB

Download Data

Hourly Data (October 2015)
Hourly Data Report for October 20, 2015
Temp Definition
°C
Dew Point Temp Definition
°C
Rel Hum Definition
%
Wind Dir Definition
10's deg

Wind Spd Definition
km/h
Visibility Definition
km
Stn Press Definition
kPa
Hmdx Definition


Wind Chill Definition


Weather Definition


TIME
00:00 -4.1 -9.1 68 10 28   99.82   -12 LegendNANA
01:00 -4.1 -9.3 67 9 28   99.84   -12 LegendNANA
02:00 -4.0 -9.5 66 10 31   99.89   -12 LegendNANA
03:00 -4.0 -9.8 64 9 29   99.92   -12 LegendNANA
04:00 -4.1 -9.8 65 8 30   99.95   -12 LegendNANA
05:00 -4.1 -9.6 66 7 25   99.95   -11 LegendNANA
06:00 -3.7 -9.5 64 8 31   99.98   -11 LegendNANA
07:00 -3.5 -9.3 64 8 32   99.99   -11 LegendNANA
08:00 -3.1 -9.0 63 8 34   100.05   -11 LegendNANA
09:00 -2.9 -8.9 63 7 34   100.09   -11 LegendNANA
10:00 -2.8 -9.1 62 8 36   100.12   -11 LegendNANA
11:00 -2.5 -9.1 61 7 35   100.17   -10 LegendNANA
12:00 -2.3 -8.8 61 7 35   100.18   -10 LegendNANA
13:00 -2.6 -8.0 66 6 35   100.23   -10 LegendNANA
14:00 -2.8 -8.2 66 6 31   100.29   -10 LegendNANA
15:00 -3.3 -8.4 68 6 29   100.35   -11 LegendNANA
16:00 -3.5 -8.3 69 6 33   100.43   -11 LegendNANA
17:00 -3.9 -8.4 71 5 30   100.49   -12 LegendNANA
18:00 -3.7 -7.9 73 5 30   100.53   -11 LegendNANA
19:00 -3.6 -8.1 71 5 33   100.56   -12 LegendNANA
20:00 -3.7 -8.1 71 5 27   100.61   -11 LegendNANA
21:00 -3.5 -8.0 71 6 23   100.67   -10 LegendNANA
22:00 -4.2 -8.6 71 33 5   100.73   -6 LegendNANA
23:00 -4.3 -8.8 71 6 22   100.75   -11 LegendNANA

Notes on Data Quality.

Legend

  • E = Estimated
  • M = Missing
  • NA = Not Available
  • ‡ = Partner data that is not subject to review by the National Climate Archives
Date modified: